Theta_e
324 321 319 320 312 308 307 304 292 291 293 288 287 290 289 296 300 298 297 300 312 317 326 327 325 324 321 320 323 326 328 320 320 306 305 323 347 347 346 345 346 347 349 351 352 353 354 356 356 357 357 357 356 356 356 356 355 355 355 355 355 354 354 354 354 354 354 354 354 353 352 353 353 353 353 352 353 352 351 349 350 350 350 350 349 349 348 348 348 347 350 351 350 348 348 347 346
318 312 309 315 311 305 299 298 289 290 290 286 290 291 292 297 298 297 297 305 310 320 325 328 328 328 329 328 329 329 329 334 333 332 338 345 346 345 345 345 346 346 349 350 352 353 353 354 356 356 356 356 356 356 355 355 355 355 355 355 354 354 354 354 354 354 354 354 354 354 353 352 353 353 353 353 353 352 351 351 351 352 351 350 349 348 348 347 346 346 347 347 347 348 349 348 347
322 312 306 311 310 303 299 299 291 286 287 284 289 291 295 295 296 296 300 308 320 324 326 326 327 326 325 326 323 322 316 339 338 340 338 344 339 340 344 345 346 348 349 350 351 352 352 354 355 355 355 355 355 355 355 354 355 355 355 354 354 354 354 354 354 354 354 354 354 354 354 354 354 354 354 353 353 352 352 351 350 351 350 349 348 348 347 346 347 347 347 347 347 348 349 348 347
316 312 306 305 298 299 293 294 287 286 286 286 286 292 295 295 299 299 303 307 320 324 325 325 324 330 324 321 324 329 327 331 340 339 337 340 340 342 344 345 348 348 349 350 350 351 351 354 354 354 355 355 354 354 354 354 354 354 354 354 354 354 354 354 354 354 354 354 353 353 353 353 354 354 354 353 352 352 352 351 350 349 348 348 347 346 346 346 347 348 347 347 347 346 347 347 346
309 315 307 303 297 295 294 291 289 288 288 287 287 291 296 299 302 304 307 307 309 319 326 326 325 331 331 327 329 319 322 336 339 343 341 342 345 343 343 343 345 346 346 348 349 350 352 354 354 353 354 354 354 353 353 353 353 353 353 353 354 353 354 354 354 353 353 353 353 352 352 352 352 353 353 352 352 352 352 351 350 349 350 351 350 349 350 349 347 347 348 347 347 346 345 345 345
312 305 308 303 298 301 296 292 291 289 293 292 290 293 295 298 300 303 307 310 315 324 326 325 324 325 325 328 331 324 332 324 339 341 342 341 343 342 342 341 342 343 346 347 349 350 351 353 353 353 353 353 353 353 353 353 353 353 353 353 352 353 353 353 352 352 352 352 351 351 351 351 351 352 352 352 351 351 350 350 350 350 349 350 348 348 348 349 348 348 347 347 347 346 345 345 344
307 301 302 302 300 298 289 288 288 290 296 296 295 297 299 299 302 303 304 316 325 326 329 326 329 327 322 327 331 334 337 340 340 342 344 342 341 341 341 340 340 341 344 346 349 350 351 352 352 352 352 353 353 353 353 353 353 353 353 352 352 352 352 351 351 351 351 351 350 350 350 350 351 352 351 350 350 349 349 349 350 350 348 349 349 349 351 349 348 347 346 346 346 345 344 343 343
312 300 300 293 292 292 289 288 289 290 293 298 299 299 300 301 302 302 301 301 310 319 325 328 328 326 323 333 322 333 337 339 343 342 342 341 340 340 341 339 339 341 343 345 349 349 352 352 352 351 352 352 352 352 352 352 353 352 352 352 352 352 351 351 351 351 351 351 350 350 350 350 350 350 351 350 350 349 349 348 348 348 348 349 350 350 349 348 347 347 346 346 345 345 344 343 342
303 301 301 294 290 293 289 288 289 292 294 297 298 300 310 303 302 301 300 303 322 324 325 327 325 320 324 326 324 332 334 340 342 343 342 341 340 342 342 340 340 340 342 347 348 350 350 352 351 351 352 352 352 352 352 352 352 352 352 352 351 351 351 351 351 351 351 350 350 350 350 350 350 350 350 350 350 349 349 348 348 348 348 349 349 349 349 349 348 347 346 345 344 344 343 342 341
301 300 293 292 291 290 288 289 289 292 293 297 297 300 301 301 301 302 300 305 317 324 324 327 327 323 326 322 325 329 330 339 340 340 342 343 343 344 342 342 341 341 343 346 348 349 349 353 351 352 351 352 352 352 352 352 352 352 352 351 351 351 351 351 351 351 351 351 350 350 350 350 350 350 350 350 350 349 348 348 347 347 347 348 349 349 349 348 347 346 345 345 343 343 342 341 341
297 298 298 292 289 287 287 288 290 294 296 298 298 301 302 302 301 301 300 306 320 321 326 331 326 325 326 325 325 334 339 339 338 336 342 344 344 342 340 342 343 342 341 343 346 349 349 349 352 351 351 351 351 352 352 352 352 351 351 351 350 351 351 351 351 351 351 350 350 350 351 350 350 350 350 350 349 348 348 347 346 346 347 347 347 348 348 348 347 346 345 344 342 341 341 341 340
295 293 294 286 287 287 286 287 290 293 295 296 297 300 298 299 301 300 300 305 320 323 322 325 324 330 324 325 324 331 336 335 336 338 341 343 342 343 342 342 342 341 341 343 347 348 348 349 349 351 351 351 351 352 352 352 351 351 351 351 350 350 350 350 351 351 350 350 350 350 350 350 349 349 350 349 348 347 347 346 346 346 346 347 347 347 347 347 347 345 344 342 341 341 340 339 338
297 295 291 290 285 287 289 289 290 295 294 295 297 299 299 301 298 298 297 304 312 315 319 328 331 328 320 323 329 333 331 334 337 339 341 341 341 341 341 340 341 340 341 345 346 347 348 347 348 349 351 352 351 351 351 351 351 350 350 350 350 350 350 351 351 351 350 350 350 350 350 349 349 349 349 349 348 347 347 346 346 346 347 347 346 346 346 346 346 345 343 342 341 340 339 337 338
298 294 292 290 289 290 289 290 290 289 290 295 296 298 300 299 300 299 309 313 315 316 325 331 330 329 324 326 325 324 328 335 337 338 339 340 341 340 340 339 339 339 342 345 345 346 347 347 348 348 349 349 349 350 351 351 351 350 350 350 350 349 350 351 351 351 350 350 350 350 350 349 349 349 349 348 348 348 347 346 346 346 347 346 346 346 345 345 346 345 343 342 341 340 339 339 339
298 295 293 291 288 289 289 288 289 290 291 295 297 299 298 303 300 301 316 315 317 326 330 333 331 324 318 323 321 325 329 334 336 337 338 339 340 340 339 339 339 341 343 344 345 346 346 347 347 347 348 348 348 348 348 350 351 351 350 350 350 350 350 350 350 350 349 349 350 349 349 349 349 349 349 348 348 347 347 346 347 347 346 346 346 345 345 345 345 345 344 342 341 341 340 340 339
298 296 293 291 286 287 289 289 292 290 291 293 297 299 298 301 301 301 307 319 319 327 327 318 325 320 326 325 327 330 332 334 336 336 337 338 339 339 339 340 339 339 341 342 343 345 346 345 345 346 346 347 348 347 347 348 350 351 350 350 350 349 349 349 349 349 348 348 348 348 348 348 347 347 349 347 348 347 347 345 347 346 346 346 346 345 345 344 344 344 344 343 342 341 341 339 340
300 299 291 288 288 288 288 290 291 288 291 294 298 299 299 298 301 302 305 324 319 316 317 321 319 331 329 329 332 333 333 335 336 335 335 335 337 337 337 338 337 338 339 340 341 343 345 344 344 344 345 346 347 347 346 347 349 351 350 349 348 348 348 348 348 347 347 347 346 347 344 341 340 343 344 344 348 345 345 346 346 345 346 345 345 345 344 344 344 344 344 343 343 342 341 341 340
298 293 288 287 288 289 292 293 294 294 295 297 298 297 298 297 299 303 311 317 318 322 324 329 332 331 333 333 334 333 334 333 333 332 333 333 335 334 333 334 336 334 336 337 341 342 342 343 343 343 343 344 346 346 346 346 348 348 345 343 342 344 346 346 343 341 345 340 345 341 338 342 338 338 340 347 344 345 345 346 346 345 345 345 345 344 344 344 344 344 344 343 343 342 342 332 331
294 290 289 288 289 292 297 296 296 295 295 296 297 297 298 299 300 302 301 312 316 321 325 327 327 329 331 332 332 332 332 332 332 332 331 332 332 330 330 330 334 335 334 337 339 341 341 342 343 342 343 343 344 344 345 345 344 344 343 341 341 345 346 343 340 341 335 337 336 337 337 337 337 339 339 345 344 346 344 345 345 345 344 344 344 344 344 344 344 344 344 344 343 342 335 329 326
294 293 287 289 292 294 297 298 297 298 296 296 296 298 297 298 299 302 299 304 318 319 320 323 324 325 328 329 331 331 331 332 332 331 331 331 331 330 328 329 332 335 335 338 339 341 341 342 342 342 342 342 342 343 344 342 342 341 340 339 338 337 337 338 336 335 335 335 335 334 335 336 335 334 345 344 344 343 343 344 345 345 344 344 344 343 343 343 344 344 344 343 342 339 330 328 327
293 292 288 290 293 294 298 298 298 297 297 297 297 297 296 299 299 301 298 298 306 318 324 324 324 326 327 329 330 330 330 330 330 331 330 329 329 329 328 327 329 332 334 339 341 340 341 342 342 342 343 342 342 342 343 342 341 340 338 337 336 333 333 333 334 333 334 334 333 334 334 336 334 333 334 337 336 339 337 338 339 338 338 337 342 335 337 339 340 337 336 337 329 329 329 328 327
296 292 295 296 296 294 298 298 298 297 297 296 296 297 297 299 299 298 299 296 292 315 324 328 328 329 328 328 329 330 329 329 329 330 327 326 326 326 328 328 329 331 332 336 339 340 340 342 342 342 341 341 342 341 341 342 342 339 338 336 334 331 330 331 332 332 333 334 333 334 335 332 332 332 332 333 336 336 336 335 336 337 336 336 339 335 335 336 334 335 333 332 329 327 328 328 325
290 293 293 296 297 296 298 299 298 298 297 296 296 298 301 297 296 296 301 297 294 312 328 330 330 331 331 331 330 328 328 328 327 324 324 325 325 326 327 327 327 327 329 329 332 336 340 342 342 342 341 341 341 341 342 341 338 338 337 335 333 331 330 330 331 330 332 333 333 335 332 331 331 331 332 333 333 332 334 335 335 335 335 335 337 335 334 334 334 333 331 332 329 328 328 326 324
294 291 294 296 297 297 300 299 297 294 295 296 297 299 298 296 295 305 316 322 323 330 332 331 331 332 332 330 329 328 327 324 323 324 326 325 326 326 326 325 327 328 328 328 331 334 339 341 342 342 341 340 339 341 341 339 338 338 338 342 335 336 333 330 329 330 332 332 335 335 336 332 332 331 331 331 334 332 331 331 331 332 333 334 336 334 331 331 331 331 330 330 329 328 326 325 324
292 292 295 296 297 297 298 296 294 295 295 296 297 297 296 295 296 312 319 325 330 332 333 333 333 332 331 329 326 322 321 322 322 323 325 326 326 326 326 326 326 326 326 327 331 338 339 341 341 340 341 340 340 341 339 339 338 338 339 336 333 340 331 330 330 330 331 332 334 336 337 332 330 332 331 332 331 331 331 331 332 332 332 333 333 332 332 330 329 330 329 329 329 328 326 325 325
293 294 296 297 297 297 297 296 295 296 297 297 296 294 294 295 298 309 322 327 331 333 333 333 332 331 329 325 322 321 320 320 321 320 322 325 325 325 324 325 325 325 326 328 335 338 340 341 340 340 340 340 341 340 339 338 337 336 335 335 335 339 330 331 331 330 329 332 333 335 335 333 332 331 330 331 330 329 330 331 334 333 333 333 333 332 331 329 329 328 328 329 330 329 328 327 328
293 295 295 295 297 297 297 296 296 295 297 296 295 294 295 296 297 300 320 329 331 331 331 332 331 328 326 323 321 322 320 320 322 322 323 324 324 324 324 325 325 327 329 330 335 338 340 340 339 340 340 344 340 339 338 337 337 335 335 334 335 333 332 334 332 331 330 331 333 334 334 334 331 332 331 330 329 328 328 328 331 332 332 332 330 330 330 329 329 329 329 329 328 328 330 329 328
298 296 294 294 294 295 295 296 295 295 296 295 295 294 294 296 296 310 319 328 331 329 329 329 328 326 325 322 321 320 320 321 323 322 321 322 322 323 323 324 325 326 327 328 332 338 339 339 339 339 340 342 339 339 339 336 335 335 335 334 333 333 334 331 330 331 336 332 334 332 332 333 334 331 331 330 329 329 328 327 329 329 329 330 329 330 330 329 328 330 331 330 329 329 327 327 327
298 296 292 291 292 294 295 295 296 298 295 297 297 295 293 294 292 316 323 327 329 328 327 326 325 324 323 321 321 322 322 322 323 322 322 323 323 324 323 325 326 326 327 329 331 337 337 338 337 338 340 340 338 338 337 335 334 336 334 333 333 335 333 332 332 332 332 333 333 332 333 334 331 328 326 328 330 329 329 327 328 329 329 330 328 328 329 328 327 328 328 330 328 327 327 327 328
297 296 292 291 289 290 294 295 296 295 296 296 297 285 287 291 295 319 323 325 326 325 324 324 323 323 322 321 321 320 321 322 322 322 323 323 324 324 324 324 327 326 327 327 331 333 335 336 337 337 338 338 337 336 334 333 333 333 333 332 335 332 332 331 333 332 333 333 333 332 333 332 331 329 327 328 329 327 328 329 329 331 332 330 328 326 326 327 326 326 327 327 329 326 325 326 325
292 293 292 287 285 286 294 295 295 294 298 296 297 287 288 291 307 318 322 324 322 321 322 322 321 320 320 320 319 318 320 322 322 322 323 324 324 325 325 326 327 326 327 327 328 330 333 333 335 335 335 335 336 334 333 332 332 334 333 332 332 331 331 330 329 330 332 333 332 331 332 332 330 330 329 327 327 328 329 329 330 330 331 330 328 326 326 326 325 325 327 325 323 324 325 323 324
291 288 282 285 286 287 294 296 295 293 296 296 296 288 289 291 310 316 318 319 320 319 320 320 320 319 319 318 319 319 320 321 322 322 322 324 324 324 325 326 327 326 326 326 327 330 330 330 333 331 330 329 330 332 332 332 332 332 333 335 330 328 328 328 327 328 332 331 330 329 332 332 330 330 329 328 327 327 328 328 331 330 329 330 329 329 325 323 323 324 325 325 322 324 325 324 323
287 287 285 285 286 287 289 293 295 296 295 295 295 286 290 291 307 313 316 316 319 319 319 319 319 318 318 318 318 319 319 320 321 322 322 323 324 325 326 326 326 326 327 326 325 327 328 329 332 329 328 328 328 330 331 330 331 332 332 332 328 326 325 326 326 327 331 331 330 330 331 332 330 329 328 329 328 327 328 327 330 330 329 328 331 330 327 327 325 325 323 325 325 322 325 326 323
283 286 285 287 287 287 287 293 295 295 295 291 294 290 290 292 302 311 313 314 315 315 317 318 318 317 318 318 318 318 319 318 319 320 321 322 323 325 325 327 327 327 327 326 325 327 328 328 328 328 328 328 328 329 329 329 330 330 330 328 330 325 325 326 327 329 329 327 329 330 329 329 329 327 327 329 328 328 328 327 327 328 327 325 326 329 329 329 327 325 324 326 327 325 324 323 321
283 285 287 287 289 289 290 289 292 294 294 292 292 292 291 291 293 306 309 313 313 314 316 317 316 316 317 317 317 318 318 318 319 321 321 322 323 324 326 326 326 327 326 325 326 328 328 328 329 329 327 327 327 327 327 326 324 320 320 323 323 324 326 325 327 327 326 325 327 327 329 329 328 326 327 329 327 328 327 325 325 327 326 325 328 328 326 327 327 325 323 324 326 327 324 323 323
289 291 289 290 288 288 288 294 295 295 291 290 290 289 291 292 294 303 308 311 312 314 315 315 315 315 315 316 317 317 317 318 319 321 322 323 323 325 325 326 325 326 327 328 329 329 328 328 327 326 326 326 325 324 323 319 317 318 318 318 320 322 321 323 320 321 320 321 323 323 323 326 328 327 327 326 325 326 325 324 324 326 326 326 327 326 324 325 325 325 324 324 324 325 326 324 325
293 293 291 289 289 290 293 294 296 295 292 290 290 291 291 294 294 297 304 309 311 313 312 312 313 313 314 315 315 316 316 318 319 321 322 323 323 324 325 325 325 328 330 329 329 328 328 328 326 325 325 325 322 319 317 315 315 315 315 317 318 317 318 318 318 317 317 319 319 320 321 321 321 325 327 324 323 328 323 323 325 324 325 326 324 323 323 324 324 324 323 323 323 325 326 327 325
295 292 290 287 290 288 293 295 299 298 293 291 292 292 292 293 294 297 307 310 310 311 311 311 312 313 314 314 314 315 316 317 319 319 321 322 323 324 326 326 328 328 328 328 328 328 327 327 326 326 324 322 320 319 317 315 315 315 315 317 317 317 316 316 316 317 318 320 319 319 319 319 319 320 321 321 323 324 322 322 323 325 327 326 324 324 323 325 322 321 321 320 324 324 323 324 323
292 290 289 287 286 291 292 296 300 301 296 291 292 291 291 295 295 296 307 309 311 312 312 312 312 311 312 313 313 314 314 315 317 319 320 321 322 323 327 327 329 329 328 328 328 327 326 326 326 325 323 321 320 319 317 316 316 316 316 315 318 315 315 316 316 318 319 318 318 319 319 318 317 319 319 320 321 322 321 320 321 322 324 325 321 320 320 321 321 321 320 320 321 323 324 327 324
290 288 286 285 289 288 284 291 299 300 297 294 293 291 291 294 295 296 303 306 309 312 312 312 312 311 311 312 313 313 313 314 315 317 319 321 322 323 326 327 328 327 327 327 327 326 327 326 325 325 323 322 321 321 321 318 318 317 318 318 317 315 315 318 316 315 316 317 318 319 318 317 318 317 317 318 318 318 317 317 318 321 322 322 321 319 318 319 320 322 322 321 320 320 323 323 325
289 291 289 288 291 289 290 289 295 297 296 296 292 289 288 289 292 293 298 305 308 309 310 310 311 313 314 314 314 315 314 314 315 317 319 320 321 323 325 326 326 326 326 326 327 327 327 326 326 325 324 323 322 322 321 320 320 318 318 317 317 316 315 313 312 312 314 318 317 316 316 317 318 318 318 318 319 316 316 316 316 315 317 320 321 320 317 319 319 320 321 321 318 316 319 323 326
286 289 292 292 293 291 292 293 291 284 284 291 290 281 279 286 290 292 292 299 304 307 308 308 309 310 312 312 312 314 314 316 317 318 319 320 322 323 324 324 325 326 326 327 327 327 327 326 326 325 324 323 322 320 320 319 318 316 315 313 311 311 310 309 309 312 313 313 314 316 316 317 317 315 316 317 318 316 313 314 314 315 315 316 316 315 314 314 314 317 319 319 318 317 318 318 321
285 288 294 294 295 294 294 292 287 282 282 291 294 283 277 284 289 290 293 297 302 302 305 308 308 308 311 313 313 313 314 316 316 318 319 320 321 322 322 323 325 325 326 327 327 327 327 327 326 325 324 322 320 319 319 319 316 316 315 313 312 312 311 309 310 312 313 313 314 314 315 315 316 317 315 315 314 314 312 313 314 314 313 314 317 314 314 314 315 317 319 319 318 319 316 315 319
285 290 294 295 294 292 293 291 290 285 290 290 293 286 282 280 287 290 293 293 294 297 300 301 304 307 310 313 313 313 315 316 316 317 319 320 321 322 321 323 324 326 327 327 327 327 326 327 326 325 323 323 320 319 318 318 316 314 313 312 313 312 312 312 312 312 312 314 314 314 314 314 315 314 313 313 313 314 313 311 312 312 313 314 315 312 311 312 314 315 315 313 314 316 316 317 317
287 294 297 295 294 293 292 290 287 289 286 284 282 291 283 278 285 292 293 293 292 294 296 297 301 307 310 312 313 313 316 316 316 316 317 319 320 322 322 322 323 325 326 328 327 327 327 327 326 324 322 321 319 319 318 317 317 314 313 313 313 313 314 313 314 315 314 314 312 312 313 313 313 313 313 311 311 314 316 312 310 310 311 312 315 314 312 313 312 311 312 312 311 312 313 312 312
293 296 298 296 296 295 293 288 288 286 283 278 282 288 283 277 282 287 290 289 291 293 296 298 302 307 310 311 312 313 314 314 315 317 318 319 320 320 322 322 322 324 326 328 328 327 327 327 325 323 321 320 319 319 318 317 316 315 313 313 313 313 314 313 314 313 312 311 311 310 310 311 310 310 310 311 311 312 311 313 312 311 310 312 313 310 310 311 311 311 310 311 311 311 310 310 309
298 296 291 289 289 288 288 286 285 282 278 277 285 290 285 279 281 286 288 292 292 292 294 298 304 308 310 311 312 313 314 314 314 314 316 318 319 319 319 321 322 322 324 327 327 327 327 326 325 323 322 321 320 319 318 317 315 314 314 314 315 313 313 313 312 312 311 310 311 309 310 310 310 310 310 310 310 311 313 315 313 313 314 316 313 310 309 311 310 311 311 311 310 310 309 309 309
295 292 287 284 283 285 281 281 283 279 271 278 287 290 288 279 279 287 291 294 295 294 296 298 302 307 308 309 311 313 314 314 314 312 312 313 314 314 316 319 321 322 324 326 327 327 326 326 324 322 321 320 319 319 318 317 315 314 315 316 315 314 314 313 312 312 312 312 310 309 310 310 309 310 309 309 309 310 312 311 312 310 311 310 311 311 311 312 312 311 310 309 308 308 309 310 308
289 287 284 280 277 275 275 277 276 276 275 285 289 289 284 281 283 291 293 294 295 296 299 299 302 303 303 306 308 310 311 313 313 312 313 313 314 313 315 318 318 320 323 325 327 326 326 325 324 322 320 320 318 318 318 317 316 316 317 316 315 314 314 313 313 312 312 312 311 310 309 308 310 310 308 309 308 309 310 309 309 309 309 311 310 311 310 311 310 310 310 308 308 308 307 307 307
288 286 280 277 275 271 269 270 274 277 281 286 287 290 282 283 289 293 294 296 297 298 300 302 303 303 305 307 309 310 312 313 313 314 314 313 313 314 314 316 318 319 322 324 325 325 322 319 319 320 319 319 318 317 318 316 316 317 318 317 316 316 313 313 312 313 312 312 312 311 309 309 310 310 309 309 310 310 310 311 309 308 308 309 310 310 310 310 310 310 309 309 308 307 307 306 306
285 286 286 283 277 277 271 276 272 274 278 282 288 283 278 279 286 296 297 298 300 301 303 305 307 308 309 311 312 312 312 312 314 314 314 313 313 314 315 315 316 317 317 319 321 318 314 317 319 319 318 319 318 317 318 317 315 317 318 317 317 316 314 313 313 314 312 311 312 311 310 310 310 311 311 311 312 311 311 311 310 309 309 308 308 309 312 311 311 312 311 309 307 306 307 308 305
286 290 288 284 282 281 279 277 278 279 278 278 281 280 282 286 293 298 300 301 304 305 305 307 306 308 309 309 310 310 311 312 313 313 312 312 312 312 313 315 316 316 315 315 317 314 314 314 318 320 319 319 320 319 319 317 315 318 317 317 316 317 316 315 314 315 313 313 313 311 310 310 311 311 311 312 312 311 312 311 311 309 308 308 309 308 308 310 309 310 308 307 307 311 307 306 305
286 286 284 286 289 287 278 279 280 276 277 275 276 280 285 291 290 295 297 300 303 305 306 307 307 308 309 309 309 310 310 311 311 311 311 311 312 312 312 313 313 314 314 314 316 314 314 316 316 317 318 318 319 318 318 317 317 318 317 317 316 317 316 315 315 315 314 313 314 313 311 311 311 312 313 313 313 310 312 311 310 310 309 308 309 309 309 308 308 309 307 305 305 307 308 306 306
286 283 285 288 293 290 283 276 277 274 272 273 280 276 279 282 280 293 294 295 298 300 303 305 307 308 308 309 308 309 310 310 310 310 311 311 312 312 313 313 313 313 313 315 316 316 315 316 317 317 317 318 319 318 318 318 318 318 318 317 316 317 317 316 316 316 316 314 314 314 313 312 311 313 314 314 313 313 313 317 310 310 309 309 309 309 309 308 308 307 306 306 306 307 307 307 308
288 287 292 285 278 279 279 279 272 271 271 272 279 282 283 284 284 288 293 294 294 297 300 303 305 306 307 307 308 308 310 309 309 310 310 310 310 311 311 312 313 314 314 315 317 318 318 317 317 318 318 318 318 319 318 319 320 321 319 318 316 317 317 317 317 317 316 315 315 314 314 313 313 313 315 312 312 314 314 312 311 311 310 310 309 308 308 308 308 307 307 307 307 305 305 305 307
293 291 288 289 282 278 277 277 278 275 270 271 275 278 277 287 286 292 291 294 295 297 299 299 302 304 305 306 307 307 307 307 308 309 309 309 310 311 311 312 313 314 314 315 316 317 317 317 317 317 317 317 318 318 317 316 318 318 319 318 317 317 317 318 318 316 315 316 316 314 315 313 313 315 314 313 312 314 314 313 312 312 311 311 311 309 309 307 306 307 308 308 307 306 306 306 307
286 287 286 288 286 286 283 283 282 278 271 269 269 271 280 282 290 292 293 295 296 298 298 299 300 303 305 306 306 305 306 306 306 306 306 307 308 309 310 311 312 313 314 315 316 316 316 316 315 316 315 315 315 316 315 316 318 319 319 320 319 318 318 318 317 318 315 315 316 315 315 315 315 315 315 313 313 315 314 314 313 313 312 311 311 310 310 308 307 307 306 307 306 307 307 306 307
287 285 285 286 283 281 279 277 283 282 277 274 272 270 275 284 298 296 295 297 300 301 301 301 303 304 304 305 306 306 306 305 305 306 306 307 308 308 308 309 311 312 313 313 314 315 314 314 313 312 315 314 313 314 314 316 317 317 317 317 319 319 318 318 317 317 316 315 315 316 315 313 315 315 315 314 313 315 315 315 314 313 312 312 311 310 310 310 308 308 307 309 308 307 307 306 305
Wind_Speed
3 3 1 1 1 2 2 2 1 2 2 3 4 1 5 1 4 4 7 3 5 3 4 9 7 2 2 7 13 8 7 2 1 4 2 0 7 10 12 13 13 10 11 8 6 5 6 10 13 15 15 16 17 17 17 18 18 17 17 15 15 15 15 15 14 14 14 13 13 13 14 15 14 14 14 14 13 13 14 14 15 15 15 17 16 16 15 14 14 13 15 14 14 13 12 11 12
2 3 4 1 1 1 1 2 2 1 2 3 9 2 4 3 4 5 9 1 3 5 2 11 14 16 18 18 14 13 12 9 4 6 6 8 10 8 12 14 14 14 10 8 7 6 5 9 14 15 16 18 17 17 18 18 17 17 17 16 15 14 14 14 14 14 14 14 13 13 14 14 15 15 14 13 12 13 13 14 15 14 14 16 16 15 14 14 13 14 12 11 11 12 11 11 11
2 4 4 4 2 2 0 1 0 1 2 4 7 5 4 7 5 6 11 6 9 9 7 9 8 6 5 5 8 4 3 5 11 9 6 10 13 5 8 11 11 11 11 8 8 6 5 9 14 16 17 17 17 18 18 19 17 17 17 16 16 14 14 14 14 14 14 13 13 14 14 15 15 15 14 13 13 12 12 13 14 14 13 14 15 14 13 13 14 14 13 12 11 11 11 11 10
3 1 1 1 1 1 2 2 3 5 3 7 6 5 4 4 5 9 6 8 15 8 3 3 6 6 5 14 9 9 8 4 3 10 7 6 7 10 9 10 9 8 8 8 8 6 6 12 15 16 17 17 17 19 19 18 17 17 17 17 16 14 13 13 13 14 14 14 14 14 14 14 14 14 14 13 12 11 11 12 13 12 12 13 13 12 11 12 13 13 13 11 11 10 9 9 8
2 0 1 2 3 1 1 2 2 3 6 4 5 4 6 3 5 4 3 3 1 6 6 6 7 3 6 5 1 2 2 6 7 6 8 9 12 12 12 10 6 5 6 7 8 7 8 17 14 15 16 17 17 18 18 18 17 17 17 16 15 14 13 13 13 13 14 14 14 14 14 14 14 13 13 13 11 11 11 11 11 9 7 9 8 8 7 9 12 13 12 11 10 9 8 7 6
2 2 1 2 1 1 2 1 2 3 9 3 3 3 2 9 12 5 3 5 4 8 9 3 8 5 5 3 3 2 1 4 7 7 10 10 15 17 15 12 10 8 6 4 6 6 7 14 13 14 15 16 16 17 18 18 18 17 16 16 15 14 13 13 12 12 14 14 14 14 14 14 13 13 12 12 11 11 10 9 7 7 10 9 9 9 8 13 13 12 11 10 10 8 7 6 5
1 3 1 1 1 1 4 2 4 5 11 6 6 10 8 9 10 2 2 6 7 7 5 10 15 10 9 2 5 5 7 3 7 9 10 14 14 12 11 12 13 13 6 7 4 5 8 12 13 14 16 16 17 18 18 18 18 17 17 16 15 15 14 13 12 12 13 13 14 15 15 14 13 13 12 12 11 11 10 7 8 10 11 9 9 11 14 14 13 11 11 10 9 8 6 4 3
0 1 0 2 1 1 0 2 6 4 7 7 5 7 9 11 9 5 6 2 3 3 3 10 3 8 1 4 6 5 11 10 15 17 15 14 14 11 10 12 12 12 11 2 3 3 11 12 14 15 15 16 18 18 18 18 17 16 17 16 15 15 14 14 13 12 11 12 14 14 15 14 14 14 13 12 12 11 11 10 12 12 10 11 12 13 13 14 13 12 11 10 9 7 5 3 2
1 1 1 3 1 1 1 4 7 4 8 7 10 9 12 9 9 7 3 2 5 6 5 6 4 10 2 9 5 3 7 11 15 16 16 16 15 13 10 12 13 11 11 7 0 2 5 12 14 15 15 16 17 18 17 18 16 16 16 16 15 14 13 13 14 12 11 12 14 15 14 14 14 14 13 13 12 12 12 12 11 12 11 12 12 13 13 13 13 11 10 10 8 6 5 2 1
0 1 0 1 2 1 1 7 2 6 1 5 7 14 13 7 9 12 3 5 7 7 2 3 2 10 10 11 5 4 3 6 15 14 12 13 14 12 12 12 12 14 10 9 5 4 5 14 15 15 15 16 16 16 15 15 16 16 16 15 14 13 13 12 12 12 12 12 12 13 14 14 13 13 13 13 12 11 11 11 11 11 11 11 12 12 12 12 12 11 10 9 7 5 4 3 1
1 1 1 1 0 1 4 7 5 9 9 6 9 14 17 10 7 3 3 4 5 6 5 12 11 12 9 4 2 2 2 4 14 12 10 13 13 13 12 13 13 15 14 11 7 6 6 8 17 15 16 16 16 15 15 14 14 14 14 14 13 13 13 12 12 11 12 13 14 14 14 14 13 13 12 12 12 11 10 10 10 11 10 11 11 12 11 11 11 10 10 8 6 5 4 3 1
1 1 1 1 3 4 5 3 5 8 9 7 9 12 3 3 3 1 2 9 2 9 6 2 7 11 10 5 1 3 4 5 7 9 11 12 11 11 12 11 13 12 14 13 9 7 6 8 9 16 16 16 15 15 14 15 15 15 15 14 13 13 13 12 12 12 14 13 13 13 13 13 13 12 11 12 11 11 10 10 10 10 10 11 11 11 11 10 10 10 9 7 6 4 3 2 1
1 0 1 1 2 1 5 5 6 6 6 7 7 5 3 8 4 5 5 5 5 3 4 1 16 2 5 3 2 2 3 2 4 8 10 10 10 9 9 10 11 11 9 11 11 9 7 7 9 10 13 18 15 14 15 15 14 15 15 14 13 12 12 12 13 13 13 13 13 13 12 12 12 12 12 11 11 11 11 10 10 10 10 11 11 10 10 10 9 9 8 7 5 3 1 1 1
3 4 3 2 0 2 4 5 4 4 6 7 5 6 6 2 2 6 9 7 2 4 3 11 7 12 7 6 1 4 5 5 7 8 8 9 9 10 12 11 12 12 10 10 10 9 7 8 8 10 11 10 10 13 14 14 14 14 14 13 13 12 12 12 12 11 12 11 12 12 12 12 12 12 12 11 10 9 9 9 9 10 10 11 10 10 9 9 8 8 7 6 5 3 1 2 3
3 1 1 2 3 1 4 3 3 1 8 5 5 2 4 2 1 5 12 8 3 3 7 2 8 7 6 10 4 8 10 10 9 10 10 9 10 10 12 11 12 11 10 11 10 9 9 9 9 8 8 8 9 7 7 11 14 14 14 13 12 12 12 13 13 11 12 12 12 12 12 12 12 12 12 11 10 9 9 9 8 9 9 10 10 9 8 8 7 6 6 5 4 3 2 3 4
4 1 1 1 4 3 6 3 1 0 6 2 5 5 4 3 2 3 2 7 3 3 2 3 1 2 8 10 14 14 13 11 11 12 11 11 9 9 11 11 11 12 9 10 10 9 9 9 8 7 8 8 7 7 8 8 13 14 12 12 12 11 12 12 12 12 12 12 12 10 9 8 9 9 12 9 11 9 8 5 7 7 9 9 9 8 8 7 6 5 4 4 3 2 2 4 5
1 1 1 2 8 4 5 2 1 2 6 7 7 5 2 3 4 4 2 8 11 1 3 3 1 2 18 5 11 15 13 12 13 14 14 11 10 8 7 8 8 9 7 8 8 8 9 9 9 7 7 8 8 8 7 8 10 14 10 11 11 11 11 12 11 13 11 10 9 9 7 4 3 3 6 5 10 5 6 7 8 8 8 9 8 8 8 7 7 6 5 5 3 3 2 4 5
2 2 2 5 6 5 4 4 1 2 7 9 11 6 3 2 4 1 5 9 7 7 8 4 11 10 7 7 16 16 14 15 14 16 14 12 9 8 7 7 8 9 9 8 7 8 8 8 9 9 7 8 8 7 6 6 7 9 7 6 5 7 8 9 6 4 7 4 9 6 3 3 4 3 3 7 4 5 6 7 8 8 8 9 8 7 7 6 6 5 5 4 4 3 3 1 3
3 1 3 9 4 6 1 0 1 3 6 8 7 1 4 0 0 1 4 3 4 9 5 5 11 10 13 12 12 13 13 13 14 14 15 14 10 11 8 5 4 6 7 6 6 8 7 7 8 8 8 8 8 6 5 5 6 5 5 4 3 5 7 7 4 6 3 4 3 3 3 4 3 3 2 6 5 8 6 8 8 8 8 8 7 7 7 6 5 4 5 4 3 3 1 0 2
3 4 6 7 4 5 5 1 5 4 5 4 3 7 4 3 2 3 3 4 5 9 8 4 10 12 12 13 11 9 8 11 12 14 15 14 11 11 8 5 2 4 5 5 6 6 7 7 8 8 9 8 7 6 5 5 4 4 4 3 3 3 5 5 4 4 4 3 3 3 3 2 2 1 5 8 7 4 5 6 8 9 9 8 8 5 6 6 6 7 6 5 3 2 1 1 2
2 3 5 5 6 5 8 4 5 5 6 4 2 2 4 6 2 0 3 5 1 4 9 14 13 15 15 14 12 9 9 9 9 11 15 14 12 10 10 9 6 6 6 4 2 5 6 7 6 7 8 7 7 6 6 5 4 4 4 4 4 2 5 5 5 4 3 3 3 3 2 2 2 2 3 4 4 4 4 3 3 3 3 3 5 3 4 4 5 3 2 2 1 2 3 3 3
0 5 6 8 6 5 10 8 7 6 7 6 4 1 1 6 4 4 1 1 5 7 6 13 17 17 18 15 12 10 9 9 8 8 9 11 13 11 9 9 12 9 6 3 5 5 5 6 7 6 7 6 6 6 6 7 7 5 5 4 4 2 2 4 4 4 4 3 3 2 1 2 2 1 2 3 3 4 4 3 4 4 3 3 3 4 4 3 1 0 1 2 2 2 3 3 3
5 6 5 7 9 7 4 4 4 1 2 4 1 1 1 2 3 3 1 3 3 4 7 13 16 16 16 15 14 11 9 8 6 8 10 11 11 10 9 8 10 11 8 4 4 2 6 7 7 7 7 6 6 6 6 6 5 5 4 4 5 3 2 3 4 3 4 4 3 3 3 2 2 3 3 3 4 2 1 3 3 3 3 4 4 4 3 2 2 1 2 3 2 2 3 3 3
6 7 5 9 9 11 13 8 5 5 6 3 2 0 0 1 2 1 2 3 2 10 11 12 13 13 14 14 9 8 8 9 5 3 6 9 9 9 11 12 8 8 9 3 4 7 7 8 8 7 7 7 6 6 6 6 5 5 4 5 4 5 4 3 4 4 3 4 3 3 3 2 4 4 4 4 4 3 1 1 2 2 3 3 4 3 3 3 2 1 0 2 2 2 3 3 4
5 6 7 9 6 8 10 7 5 5 6 7 4 2 4 3 2 2 1 3 10 12 13 14 14 14 11 11 12 13 11 9 8 5 4 6 7 7 6 10 8 9 12 9 10 7 7 8 7 8 7 7 6 6 6 5 5 5 4 4 4 4 3 3 2 3 4 3 3 3 3 3 2 4 5 5 4 4 4 2 3 5 3 3 3 2 3 4 3 2 2 2 1 1 1 2 2
5 12 9 7 7 7 8 6 6 5 4 5 5 5 4 7 5 3 3 7 11 12 12 13 14 13 12 11 12 11 11 11 10 10 9 1 7 9 7 10 6 8 12 10 9 6 6 8 8 8 8 7 7 7 6 6 5 5 4 4 4 4 3 4 3 2 2 4 3 3 3 4 4 4 4 4 6 6 6 7 5 6 5 4 4 4 3 4 3 2 2 1 1 0 1 2 2
2 5 5 8 12 9 6 7 5 3 2 3 3 3 3 2 4 1 4 7 12 13 12 11 13 12 11 11 11 10 12 10 14 10 2 4 4 7 6 7 3 5 8 7 5 6 7 8 8 8 8 7 6 7 6 5 5 5 4 3 3 4 3 4 4 3 3 4 3 3 2 3 3 3 5 6 6 6 3 1 1 2 4 4 3 4 3 3 2 3 3 2 1 0 1 2 2
6 6 5 6 5 5 4 2 5 2 3 2 4 6 5 1 3 10 7 5 12 15 12 12 10 10 10 10 11 7 7 7 8 11 12 8 7 6 7 7 4 5 12 8 4 5 7 8 9 8 7 7 7 6 6 6 5 4 3 3 4 4 4 4 4 3 4 4 3 4 4 3 4 3 3 3 3 3 2 1 1 0 1 1 2 3 3 2 2 1 1 1 2 0 1 2 2
6 5 4 5 4 5 3 2 3 0 3 3 1 2 3 1 2 14 12 9 11 15 13 12 10 10 9 9 8 8 7 7 7 7 10 7 5 5 7 3 4 5 7 9 4 4 7 8 8 8 7 7 7 7 6 5 5 4 4 3 4 4 4 4 4 4 4 3 4 5 5 4 2 3 3 3 3 3 1 1 1 0 1 2 1 2 3 2 1 0 0 1 0 0 1 3 2
5 4 1 5 5 7 9 3 5 3 2 3 4 4 8 7 3 15 12 12 11 13 11 10 9 9 9 9 9 5 4 8 8 8 7 6 4 5 7 3 3 4 8 8 1 6 5 5 6 6 7 8 6 6 6 6 5 5 4 4 3 4 4 5 4 4 3 4 4 4 4 4 3 3 4 4 4 3 2 3 2 2 2 3 3 2 2 2 1 0 1 1 2 1 2 3 3
1 4 2 1 4 6 4 4 2 5 3 3 3 4 10 1 10 15 14 14 15 13 12 11 10 10 10 9 10 10 8 5 8 7 6 6 5 4 4 2 2 2 9 9 2 6 5 6 6 6 6 6 7 7 7 6 6 5 5 4 4 4 3 3 4 4 4 5 5 4 4 3 3 4 4 4 3 3 2 3 3 2 2 3 3 1 1 1 1 1 0 1 2 2 2 2 1
1 5 5 5 2 8 11 1 4 7 2 7 5 6 11 3 11 12 11 11 14 14 12 12 11 10 10 10 11 11 9 7 5 5 5 7 8 6 5 5 2 8 11 9 4 6 6 5 6 6 5 6 7 8 7 7 7 6 5 5 4 3 3 3 2 3 4 4 4 4 4 5 4 4 5 5 5 4 4 3 3 3 2 3 3 2 1 1 0 0 1 1 1 2 0 1 2
5 1 3 5 2 7 8 7 6 12 5 2 10 6 4 1 9 13 13 16 14 14 11 11 12 12 10 10 10 10 9 6 4 6 6 7 7 8 7 6 6 10 12 11 3 7 6 6 7 8 8 7 6 7 8 6 6 6 5 5 4 3 3 3 2 3 4 4 4 4 4 5 5 4 3 5 5 5 4 4 4 4 3 4 4 3 2 1 2 1 0 0 1 1 0 0 2
5 2 3 3 4 5 6 11 7 10 9 5 9 7 6 2 12 15 12 13 10 11 13 11 11 10 9 9 10 10 10 9 9 8 8 5 5 6 6 7 9 14 15 15 6 10 9 8 7 7 7 7 8 9 8 7 7 6 5 4 3 4 3 2 2 2 3 2 4 5 3 3 3 3 2 2 4 4 4 4 4 3 3 2 3 4 3 3 2 2 2 0 2 1 1 1 1
3 3 2 5 2 6 12 6 6 5 9 10 9 10 7 4 2 9 12 11 14 14 15 13 13 11 9 8 8 9 10 11 10 7 7 7 8 11 9 5 8 15 15 17 14 10 7 7 6 7 8 7 7 8 7 6 5 4 4 4 4 4 3 2 2 2 1 1 2 3 3 4 3 3 3 4 4 4 3 3 4 4 3 2 4 4 4 3 2 1 2 1 0 0 2 1 2
7 4 3 2 4 7 4 11 7 10 6 7 9 10 7 5 2 10 11 13 14 11 7 8 7 8 9 9 8 8 8 10 7 6 8 7 6 8 11 9 6 5 13 14 13 9 8 7 5 6 7 7 7 6 6 6 6 6 6 5 6 5 3 3 2 2 2 2 1 2 3 4 4 4 4 4 4 3 3 3 4 4 4 4 4 4 4 4 5 4 4 3 1 1 1 0 0
6 2 2 2 3 6 8 7 4 6 6 0 4 3 4 1 1 0 2 5 4 9 10 8 8 9 11 11 11 9 9 11 7 9 9 9 7 3 6 9 7 5 9 13 12 10 10 9 8 8 6 7 8 7 6 6 6 6 4 5 6 5 5 4 4 3 2 3 3 3 3 3 3 4 3 3 3 3 3 4 3 3 4 4 4 4 4 4 4 4 3 1 2 1 1 1 1
0 1 3 6 1 3 7 4 4 6 5 1 1 6 3 1 2 5 12 10 10 11 10 11 12 12 12 14 12 11 10 5 9 7 8 9 8 9 7 8 9 11 9 11 12 11 8 8 9 7 5 5 6 7 6 4 4 5 6 6 6 5 6 6 4 2 3 2 2 1 1 1 3 4 3 4 3 3 3 3 4 3 3 3 3 3 3 3 2 1 2 2 1 1 0 0 0
2 1 1 3 4 4 8 4 7 4 4 0 1 2 2 1 3 5 13 15 11 12 17 16 14 11 9 10 12 10 8 8 8 9 9 9 10 9 8 9 8 11 11 11 10 9 8 7 7 6 5 5 5 4 5 4 3 4 6 4 7 3 2 3 4 2 2 3 4 4 3 3 3 4 4 4 4 3 2 2 2 3 2 1 1 3 3 3 2 3 3 3 2 1 1 0 1
1 4 2 3 2 2 4 8 8 7 3 1 1 3 3 6 2 5 8 8 7 9 11 13 12 13 11 13 14 14 13 13 13 11 11 7 10 9 8 10 10 10 10 9 9 10 8 7 6 7 6 5 4 2 3 3 4 4 6 7 4 5 4 3 4 3 4 5 5 3 3 4 4 4 4 4 4 4 3 3 2 3 3 3 3 2 2 2 2 2 2 1 3 3 2 1 1
2 1 3 1 1 1 1 4 2 4 4 1 4 7 6 5 3 4 3 5 8 7 6 8 8 12 14 10 11 16 18 15 13 11 11 9 12 11 11 10 8 10 10 10 10 10 7 8 8 8 7 7 4 3 5 6 7 7 7 6 7 7 5 5 5 4 3 3 3 4 3 4 5 4 4 5 5 5 4 3 4 3 3 3 3 3 2 0 1 2 3 3 3 3 2 1 2
2 4 5 4 2 3 5 5 2 6 3 4 3 2 4 3 1 2 1 4 7 8 11 12 11 4 5 10 11 6 6 12 16 15 14 12 11 9 7 8 10 9 10 10 10 9 7 7 7 7 6 5 6 6 7 8 8 9 8 8 7 6 6 5 5 5 3 4 4 1 3 4 4 4 4 5 5 4 5 5 5 5 5 5 5 4 3 3 3 2 2 3 2 1 3 2 2
1 5 4 4 2 3 3 3 4 1 1 3 2 2 3 6 4 3 1 5 10 4 6 8 7 7 8 9 10 10 11 9 5 7 8 9 9 10 9 10 10 10 8 8 8 10 9 7 7 7 7 5 6 7 8 9 8 8 8 8 7 8 8 3 2 2 4 2 2 4 3 3 4 5 4 4 5 5 5 6 6 5 5 5 4 5 5 4 4 3 3 4 3 3 3 2 2
2 4 3 4 2 3 2 5 2 1 3 3 4 3 2 4 7 3 1 5 7 8 9 5 5 7 10 9 10 10 11 12 13 13 13 12 14 16 15 12 10 10 8 8 8 9 11 9 8 8 6 6 6 8 9 10 10 8 7 6 7 7 7 6 5 4 2 3 3 2 3 3 3 4 5 4 4 5 6 6 6 5 6 4 4 5 4 3 5 5 5 4 5 4 3 4 2
3 3 2 0 2 4 4 5 3 1 2 5 6 2 1 2 7 4 2 4 2 7 11 10 10 9 12 12 13 14 14 14 13 12 12 12 13 12 10 9 6 8 8 10 9 9 9 9 9 7 7 7 7 8 10 9 10 9 9 8 6 4 6 6 5 3 4 3 4 2 3 3 3 4 4 4 4 5 5 5 5 5 5 4 4 5 4 5 5 4 5 6 6 5 4 3 3
4 6 1 2 1 2 4 2 3 2 3 2 2 2 2 4 6 6 4 1 2 3 2 8 13 15 13 13 10 7 7 8 11 14 14 13 11 10 10 8 7 8 7 8 8 8 9 10 10 10 8 8 7 7 9 9 9 9 9 8 9 6 6 6 6 6 4 3 4 3 3 3 3 4 4 4 4 5 5 5 5 5 4 4 4 4 4 5 4 5 4 4 4 6 3 4 4
1 3 4 5 6 3 2 6 3 3 1 4 2 1 3 1 4 4 2 3 4 1 2 3 7 9 8 8 11 11 11 11 11 11 10 8 6 8 7 10 8 4 5 7 8 9 10 11 12 12 10 9 9 8 9 10 9 9 10 9 9 9 8 8 7 5 4 4 5 4 4 4 3 3 4 4 4 4 5 4 5 4 4 3 4 4 4 4 4 4 4 5 5 5 4 5 4
3 0 1 1 3 8 5 5 4 1 2 4 3 0 1 0 4 6 4 7 5 3 7 6 8 9 9 7 6 7 10 11 8 5 4 4 4 3 4 5 7 7 6 7 8 9 11 12 12 13 10 10 8 8 7 8 8 8 8 9 9 9 9 8 9 9 7 6 5 5 3 4 3 3 3 4 4 4 4 4 4 4 4 4 4 4 4 4 4 4 4 5 4 4 4 5 5
6 5 6 4 1 4 1 4 2 1 3 1 1 1 4 1 3 5 8 6 7 3 2 9 13 9 8 7 8 7 5 5 6 6 5 6 6 6 5 5 5 7 10 10 11 11 11 12 14 14 10 10 8 8 8 8 7 7 9 10 9 8 7 8 8 8 6 6 6 5 5 6 4 4 3 4 3 4 4 5 4 5 4 4 4 4 4 4 4 4 4 4 4 5 4 4 6
3 2 4 4 1 1 1 2 1 2 6 6 2 0 1 3 4 2 3 9 4 3 6 8 10 12 10 9 7 6 5 7 7 6 4 4 5 5 6 6 7 8 8 10 9 8 2 9 13 13 11 3 4 6 8 7 7 6 7 8 8 8 7 7 7 8 7 6 6 6 6 6 6 6 5 5 4 4 4 4 4 4 3 4 4 4 4 4 4 5 4 4 4 2 4 4 4
3 4 7 6 7 4 3 3 4 5 6 3 4 3 2 2 4 3 4 6 7 5 7 9 10 9 8 8 9 8 7 5 7 6 5 4 3 5 6 7 7 6 5 5 5 10 12 14 14 12 9 9 4 5 7 9 6 4 6 6 7 6 7 7 7 6 7 6 5 6 5 5 6 6 6 6 4 4 4 4 4 4 4 4 4 4 4 4 4 4 4 4 3 3 4 4 4
1 3 6 6 6 7 4 6 5 2 0 2 0 2 4 3 2 2 7 12 10 8 10 12 11 9 10 10 9 6 5 6 8 8 5 4 3 3 4 6 5 5 4 3 6 11 12 11 12 12 12 9 2 4 1 7 5 6 6 7 8 7 5 6 5 4 5 6 7 6 6 6 6 6 4 4 4 4 5 5 4 4 4 4 3 4 4 4 4 5 4 4 3 1 3 4 2
2 2 1 3 4 9 4 1 0 5 5 3 1 2 3 5 3 6 6 7 8 12 9 11 10 10 12 10 8 6 5 5 6 7 6 4 5 5 3 2 3 4 4 4 9 11 12 10 10 8 6 5 8 10 9 3 7 7 7 8 7 7 7 7 7 6 6 6 7 6 6 6 5 5 6 4 5 4 5 5 5 4 4 4 3 3 4 4 4 4 4 3 4 2 3 2 2
4 2 5 1 4 5 5 3 2 2 3 4 0 1 1 2 2 4 7 8 5 3 8 13 13 14 14 8 6 6 6 6 7 7 5 6 6 6 5 4 3 3 4 6 8 7 9 9 11 12 9 9 11 10 7 5 4 7 7 8 7 9 9 7 7 8 7 6 6 7 5 5 6 6 6 5 5 6 5 6 6 4 4 4 4 3 4 4 3 3 3 3 2 3 2 1 1
3 3 3 3 1 0 4 4 1 0 1 2 2 0 0 1 2 3 5 5 4 5 3 6 10 12 13 12 9 6 7 5 5 5 5 6 6 5 5 6 6 5 4 5 7 8 9 9 9 9 10 10 13 11 8 6 4 5 7 8 8 7 7 7 6 7 7 7 7 7 7 8 6 5 5 5 5 5 6 5 6 6 5 5 4 3 3 4 4 4 2 2 2 3 4 2 0
2 2 3 0 5 2 1 3 3 5 2 1 2 3 1 2 1 0 4 2 5 6 6 5 4 5 8 9 8 6 7 6 5 6 5 5 5 6 7 8 9 7 6 6 8 7 9 9 10 7 5 5 7 10 5 5 5 5 4 4 5 8 6 6 5 6 7 7 7 7 8 6 9 7 7 7 7 6 6 7 6 8 7 6 6 5 4 4 3 4 4 3 3 3 3 2 1
7 6 1 1 2 2 5 1 1 2 3 2 1 2 2 4 4 3 3 7 4 7 7 4 4 4 5 8 8 6 5 5 5 5 5 5 5 6 6 6 7 7 6 5 6 7 6 6 6 7 8 6 5 5 3 4 5 5 6 7 6 6 8 7 6 6 7 7 6 7 7 9 6 8 7 8 7 8 8 8 7 6 7 6 6 6 5 6 5 4 4 4 4 4 4 2 2
2 2 3 6 6 3 2 3 2 2 4 2 2 1 5 4 1 1 4 4 11 12 12 9 7 5 4 5 6 7 6 4 5 4 5 5 6 6 6 7 6 7 6 7 5 6 5 4 4 4 8 4 4 3 0 0 2 3 4 3 2 2 5 6 6 5 4 3 3 4 5 4 7 8 7 8 8 7 7 6 6 7 6 5 5 5 5 5 6 6 5 4 5 5 5 4 3
Wind_Direction
13 334 293 132 93 101 61 11 102 304 69 248 263 233 252 242 249 323 281 329 71 343 58 63 69 54 92 114 114 85 16 103 183 137 210 206 115 119 117 118 127 121 119 125 129 130 135 130 128 126 124 123 122 122 122 122 121 121 121 122 123 121 117 116 114 113 114 113 114 116 117 114 111 110 111 115 118 118 116 115 111 112 115 114 113 113 112 110 103 101 105 105 105 108 110 107 111
37 7 352 120 100 94 324 134 106 17 40 354 252 137 255 291 326 272 276 39 129 144 146 88 85 90 102 112 118 86 33 28 57 105 93 94 92 97 123 129 132 129 125 125 124 130 139 133 129 127 125 125 123 124 125 124 125 124 126 127 125 123 120 117 116 116 115 116 118 117 118 119 116 112 110 105 101 103 106 110 112 114 116 117 116 115 114 113 109 101 97 95 100 109 113 112 111
37 17 9 41 33 87 250 46 78 148 110 254 270 204 289 305 246 218 235 142 142 142 113 87 79 64 112 157 51 39 149 86 86 87 97 115 105 98 103 110 117 120 126 126 129 136 140 137 130 127 125 125 126 126 126 128 129 130 130 130 129 126 122 120 119 119 119 120 121 120 117 116 115 112 108 104 105 108 111 114 114 116 123 119 116 115 113 110 108 108 105 102 103 104 108 109 110
76 82 104 65 21 12 73 33 97 129 170 225 303 268 232 256 300 214 224 171 149 147 121 53 52 317 92 67 99 80 107 123 99 125 119 111 102 111 98 92 109 115 123 127 128 134 142 139 132 128 126 126 127 128 128 129 130 131 132 133 131 128 123 122 122 124 124 124 124 123 120 117 115 111 108 107 107 110 112 112 116 122 123 117 115 114 117 112 109 107 107 107 104 105 102 102 104
72 352 118 77 107 356 97 190 161 117 227 199 213 263 270 264 335 288 285 290 198 135 114 124 86 349 52 81 30 80 147 122 110 77 92 87 108 110 101 86 69 72 108 120 124 134 141 138 129 125 124 126 126 127 128 129 129 131 131 132 131 129 127 127 129 130 129 127 125 124 124 120 117 114 113 112 109 109 111 112 120 121 98 85 93 114 114 111 112 110 109 105 107 107 108 108 100
83 70 338 88 113 205 42 14 303 228 235 144 252 220 278 303 303 297 267 24 92 119 119 100 137 169 53 33 3 69 346 133 123 70 111 120 117 123 127 123 102 57 344 80 115 123 127 131 122 122 123 124 125 127 129 131 130 131 131 132 132 131 130 129 132 135 132 130 129 129 128 125 121 118 118 119 119 117 112 108 105 119 110 97 102 116 108 108 112 112 111 111 110 111 115 110 107
16 38 18 26 339 72 148 173 233 228 265 164 241 272 271 288 274 292 266 72 21 60 100 124 121 115 93 165 71 29 316 116 113 126 113 117 115 118 115 111 113 104 33 341 50 96 121 122 122 122 123 123 124 126 129 131 133 134 133 132 132 133 133 135 138 140 137 132 132 132 131 130 127 124 121 119 115 109 106 105 107 104 102 100 102 107 104 110 111 112 110 111 113 116 117 123 124
156 98 251 95 279 59 237 208 247 187 268 161 240 255 261 257 289 304 267 103 199 103 91 134 164 89 108 30 121 358 21 22 92 95 97 111 119 116 114 114 109 112 109 27 7 108 130 128 127 124 124 126 127 129 130 133 133 132 132 131 132 133 137 139 141 139 135 134 133 129 130 132 131 127 123 120 116 113 110 110 108 106 106 107 112 114 113 115 115 115 116 118 123 126 141 144 149
5 87 306 71 10 5 348 257 254 236 270 297 280 258 265 263 263 260 241 123 93 109 155 166 148 95 195 79 62 62 45 84 94 101 105 119 126 131 128 130 125 118 111 115 5 114 140 138 128 126 128 128 130 131 133 133 132 131 130 131 133 134 137 139 139 136 134 131 129 130 131 129 126 123 122 121 119 118 118 115 113 110 112 117 121 119 120 120 120 121 123 125 131 139 148 136 83
19 103 269 142 140 279 313 280 228 253 250 263 266 277 266 243 250 229 212 104 153 149 151 7 35 109 117 94 102 21 61 88 105 100 113 122 127 132 132 125 116 119 119 120 160 162 172 137 130 129 128 129 130 132 132 132 131 129 129 130 131 134 138 140 139 137 131 126 126 128 128 128 125 124 125 125 123 121 119 118 116 116 118 126 126 125 125 123 123 126 127 130 136 138 133 124 84
343 337 174 64 16 257 253 272 270 302 288 304 288 264 266 233 205 207 173 128 130 129 96 97 61 104 99 63 42 326 15 110 107 112 120 123 129 134 129 129 135 136 134 137 156 167 157 144 132 129 129 128 129 128 129 130 129 128 127 129 132 137 141 142 139 133 128 127 129 130 129 129 128 127 125 125 122 120 120 120 120 117 122 128 130 127 127 125 126 128 130 134 134 131 134 127 105
18 25 41 112 205 181 245 221 285 283 288 284 282 283 275 204 156 87 72 101 173 145 148 203 148 123 82 113 25 348 360 45 89 117 121 126 128 133 132 132 137 140 142 139 152 162 163 144 133 129 125 126 127 128 129 129 129 129 128 130 136 143 146 143 133 128 129 131 134 133 132 131 130 128 126 125 126 126 125 124 121 120 127 131 132 132 132 129 130 130 133 136 138 140 147 154 162
149 211 97 105 236 156 242 268 263 274 299 282 262 298 357 85 114 132 74 108 150 115 359 130 142 127 97 127 160 116 105 87 107 119 123 126 127 123 117 122 123 124 141 136 146 158 156 142 129 127 128 126 125 126 128 129 128 127 129 134 143 149 146 134 128 128 132 137 136 134 131 130 130 129 128 130 130 131 129 127 126 127 132 134 136 136 134 134 133 135 139 139 140 142 167 260 294
151 180 118 260 292 231 260 260 267 308 289 273 291 282 315 55 143 141 119 85 105 103 127 123 109 101 85 107 60 159 164 153 131 117 112 114 124 125 124 122 128 138 148 144 147 151 149 135 129 128 125 122 127 128 127 126 125 126 133 143 153 152 140 131 130 132 137 137 134 130 130 132 135 136 134 132 131 127 126 129 130 131 135 138 137 137 136 138 138 139 142 148 147 156 229 289 308
203 195 98 157 277 344 248 239 238 267 286 290 275 324 6 359 85 68 100 99 21 122 132 141 169 99 205 156 194 198 171 159 137 122 115 117 121 123 126 134 137 143 149 152 147 148 143 135 128 124 125 127 126 125 126 129 128 131 139 150 158 150 139 136 135 139 140 135 132 132 133 135 139 140 139 135 129 126 133 130 126 128 132 138 137 137 136 139 141 142 148 150 161 175 248 284 310
192 102 110 199 257 215 273 253 211 328 269 303 282 340 43 327 323 79 171 129 151 152 144 166 289 196 165 173 177 172 149 142 133 123 120 117 119 124 134 140 140 144 152 151 148 147 143 134 129 126 129 130 128 126 130 133 135 136 144 156 158 145 137 132 128 135 138 133 132 129 129 133 136 139 141 138 134 132 126 124 127 127 131 134 138 137 139 143 148 151 149 157 181 203 251 289 302
157 120 268 231 272 205 256 201 123 289 270 298 325 354 46 339 314 65 2 112 130 136 37 16 355 72 154 193 136 131 138 140 135 131 127 127 133 134 134 127 138 141 149 154 151 148 142 133 130 129 130 129 128 130 135 136 141 140 146 157 155 144 134 130 128 130 128 127 123 118 103 97 104 112 124 129 141 126 130 129 128 128 133 137 142 145 146 154 161 164 166 174 189 218 256 283 307
106 199 151 248 226 242 220 228 86 285 331 316 319 310 105 17 339 39 66 65 81 70 67 56 51 55 82 101 123 135 143 144 148 140 139 138 140 134 133 143 143 151 154 154 153 145 136 134 136 137 136 136 138 138 141 140 139 141 149 158 150 140 129 126 123 111 112 93 121 107 96 102 95 104 126 135 120 138 137 132 132 132 137 141 144 147 153 162 170 179 181 192 203 210 244 324 331
146 195 150 238 200 248 276 228 317 335 285 288 287 308 339 64 245 16 91 147 108 73 47 74 82 70 92 103 123 134 144 148 150 143 142 139 138 138 137 131 138 141 150 151 151 145 141 137 142 141 141 142 140 137 133 130 128 138 149 146 131 126 136 114 122 112 87 99 94 97 87 92 98 110 116 134 134 142 146 139 138 136 139 144 144 147 156 163 173 178 189 211 223 225 231 337 312
229 167 239 248 218 251 258 196 255 246 257 284 333 331 16 308 337 338 126 190 117 123 121 78 105 118 119 127 131 135 150 156 155 145 140 138 139 134 125 112 103 141 152 158 142 138 141 145 150 147 144 142 136 132 124 120 130 137 144 128 101 96 95 107 101 111 105 109 107 103 101 91 76 102 178 144 132 116 131 140 144 144 143 146 151 152 166 168 182 189 199 214 222 260 246 247 263
266 144 213 234 226 247 267 242 239 261 271 270 241 307 23 316 308 158 189 125 301 188 168 144 151 147 143 142 143 150 158 160 154 140 135 134 129 121 119 111 70 36 354 1 87 143 151 148 144 141 141 140 136 136 132 134 133 132 139 127 116 102 101 108 109 107 117 117 114 104 112 105 99 79 57 64 91 113 109 117 115 121 123 134 133 143 163 192 183 188 210 220 207 231 251 251 253
353 211 219 228 251 255 256 251 263 251 255 285 285 58 277 304 10 355 155 215 206 195 209 150 151 144 142 146 156 154 157 151 140 130 109 113 122 125 131 127 110 95 23 278 182 160 162 146 140 140 139 138 137 134 138 146 143 159 160 141 128 104 113 109 114 117 119 129 134 134 117 96 98 72 92 100 92 110 119 131 131 132 141 157 153 168 182 172 107 50 233 254 250 236 258 266 259
241 274 269 247 242 236 259 243 237 193 280 270 323 216 232 64 297 298 12 237 244 227 139 150 149 148 144 142 148 152 145 132 115 112 124 124 129 131 126 121 118 125 132 308 5 262 156 145 143 145 140 130 132 141 142 143 159 165 153 141 142 149 139 119 115 118 117 134 141 146 137 142 128 111 107 89 91 46 84 111 131 143 156 176 184 175 178 99 116 187 249 255 261 251 271 290 297
206 249 250 261 235 236 248 250 243 248 234 238 209 74 328 71 326 311 46 310 159 105 117 120 121 128 133 134 130 107 72 41 39 95 122 129 133 135 138 126 126 129 116 95 244 221 162 155 152 146 139 137 144 148 140 143 148 157 164 162 142 162 146 139 125 135 129 126 145 162 150 152 142 121 106 89 91 105 22 47 120 154 163 191 192 166 115 110 145 225 275 298 276 256 250 251 259
207 257 250 253 248 240 252 234 239 254 255 254 250 264 251 184 197 94 15 121 112 113 114 120 124 124 120 112 103 93 81 61 26 6 62 103 113 118 124 121 135 136 132 136 234 180 157 155 149 142 143 144 148 150 144 146 152 155 167 159 149 162 144 134 134 136 143 151 156 152 146 137 118 116 107 133 124 119 143 211 199 173 164 171 175 170 119 134 150 199 219 241 289 328 300 291 300
225 226 244 253 250 254 248 268 240 239 257 240 248 252 268 247 144 55 176 119 113 112 112 123 125 124 118 110 114 114 114 104 70 10 338 347 124 133 149 134 153 163 143 146 224 166 152 150 147 149 149 154 152 149 147 148 153 157 170 166 167 147 143 132 142 163 158 148 159 158 149 142 131 128 138 149 154 162 168 184 188 165 158 168 160 118 112 131 158 197 208 213 212 180 242 283 320
230 281 258 241 246 241 255 240 286 290 244 250 230 240 249 278 144 49 303 131 115 108 116 122 127 126 121 120 125 139 136 136 134 133 322 273 141 154 145 117 168 158 116 133 216 162 151 148 148 153 159 155 148 147 148 141 147 159 167 164 138 118 139 140 147 161 161 155 148 150 104 81 100 131 146 162 166 159 159 229 262 144 143 165 141 118 120 135 156 188 197 228 216 140 199 276 293
293 253 270 268 266 226 226 280 278 315 302 194 188 244 229 311 99 166 166 167 133 123 126 129 125 127 125 128 140 130 129 134 129 143 179 189 173 169 146 145 219 176 119 115 262 159 152 154 151 159 158 152 153 146 146 146 155 154 154 140 119 130 136 136 149 156 164 154 133 97 110 134 160 140 133 142 135 116 102 188 332 73 145 129 105 118 121 131 143 190 229 227 224 144 244 257 277
283 295 329 283 345 331 306 257 256 168 272 268 237 342 313 333 187 173 154 156 145 130 134 133 129 126 126 128 127 131 137 143 149 158 185 184 173 148 138 139 239 201 106 103 260 191 161 153 151 157 152 156 155 154 147 146 142 144 148 156 140 145 145 145 155 176 158 140 120 127 141 150 167 123 95 78 98 82 96 49 67 100 99 102 75 94 99 92 63 360 288 238 285 13 331 310 287
311 332 264 340 354 318 262 246 250 271 234 127 84 294 263 261 178 163 150 154 142 129 134 135 130 128 132 133 122 95 121 148 165 171 176 169 159 134 128 158 253 223 100 65 354 203 166 152 155 149 157 160 155 134 138 141 146 142 153 155 155 144 156 156 168 160 142 125 129 141 150 160 155 142 131 104 100 114 163 181 168 127 129 115 113 107 110 118 106 34 350 6 301 2 305 284 301
336 280 35 288 4 280 267 176 239 273 203 141 94 238 268 264 167 167 163 151 144 142 147 146 144 142 139 139 134 155 169 175 167 168 172 151 132 111 113 121 252 98 82 76 10 219 160 160 154 152 153 150 141 141 143 146 149 152 151 162 170 165 161 161 152 143 139 140 141 162 150 138 140 167 137 132 140 140 139 128 119 109 105 107 108 144 132 88 110 130 84 353 306 295 283 303 320
314 20 318 332 214 270 292 285 214 219 284 138 142 246 249 218 175 158 151 157 148 145 153 157 150 145 145 144 143 153 164 159 173 162 166 147 135 130 142 136 206 98 89 82 15 232 154 164 155 147 143 147 150 149 149 152 157 155 158 171 167 148 152 164 136 118 130 144 164 167 149 149 165 180 154 148 153 168 157 158 135 138 137 126 134 182 120 131 86 360 9 99 353 299 188 348 17
345 130 282 285 292 269 337 273 198 213 215 174 169 224 294 330 181 165 167 162 158 140 155 166 152 145 146 149 150 152 144 146 152 170 170 156 155 148 143 149 161 118 105 87 17 249 150 152 149 144 143 147 148 145 147 153 152 154 164 169 152 142 139 136 120 128 132 148 162 157 160 165 176 190 166 156 152 168 175 169 161 155 166 150 153 173 172 160 146 146 312 333 215 223 243 174 28
309 355 248 215 238 283 287 288 263 213 174 217 198 208 219 162 178 179 170 157 139 151 158 163 151 149 153 153 154 155 155 157 173 178 172 156 146 130 130 171 163 132 127 130 178 247 152 149 149 142 136 139 142 146 152 152 156 154 143 141 140 119 118 136 133 111 116 155 166 167 162 171 179 176 175 157 162 187 175 155 145 153 161 169 144 139 147 132 139 180 219 144 67 133 170 121 61
250 317 345 322 281 223 248 261 284 148 192 186 197 207 247 258 251 181 167 171 160 163 163 163 155 153 154 154 156 159 160 162 178 173 151 159 172 152 151 218 190 147 146 144 177 217 142 143 140 140 134 137 136 137 137 124 115 94 99 119 100 90 77 57 84 89 111 120 200 165 164 166 186 197 191 184 180 186 158 133 144 155 153 167 157 149 143 155 182 232 199 170 110 192 160 162 145
235 213 202 213 286 299 247 269 257 150 162 188 173 204 235 307 25 166 181 176 165 157 143 134 133 144 151 155 160 164 167 171 161 150 148 164 179 170 162 173 232 171 143 148 172 159 146 140 138 137 140 137 130 126 125 117 107 117 107 90 81 88 85 80 62 101 96 106 120 131 158 174 171 196 204 190 189 162 139 148 155 161 168 173 167 149 150 160 170 193 209 174 139 56 54 339 74
245 164 143 215 297 298 309 337 335 134 95 45 155 81 73 338 133 301 155 80 91 131 137 140 156 164 166 161 163 168 171 176 156 156 157 159 159 197 176 158 199 172 141 150 154 151 150 152 146 152 154 143 138 139 139 136 122 111 96 98 110 117 114 103 89 85 103 143 143 144 149 160 160 163 190 192 190 164 143 154 154 164 168 172 164 163 167 179 181 183 184 146 157 143 122 147 306
189 42 45 318 306 321 302 283 8 354 109 285 332 109 196 239 188 168 135 141 168 158 150 162 179 178 170 162 161 169 177 148 140 155 170 163 159 180 176 176 188 156 161 155 150 152 150 148 150 153 145 148 146 148 148 130 134 144 134 136 122 120 116 109 113 126 115 96 81 56 22 57 97 107 141 174 158 152 146 151 140 159 174 175 176 138 156 152 160 157 141 102 49 118 119 140 276
340 357 251 347 313 252 290 311 1 29 84 249 255 158 226 291 304 137 152 168 178 169 167 177 177 177 164 157 158 161 157 166 158 166 172 166 164 182 180 180 188 157 157 152 148 143 146 150 152 152 152 146 152 148 131 140 129 124 115 142 126 85 34 115 120 137 122 84 36 29 29 46 53 55 69 89 109 130 135 126 136 145 158 146 85 68 96 109 136 150 156 140 110 59 54 310 165
327 345 27 253 238 49 304 310 344 357 76 285 220 24 288 317 317 122 154 156 182 185 177 176 178 165 167 169 167 167 168 164 169 169 170 164 170 183 180 175 176 155 153 150 150 149 151 156 158 155 155 152 150 159 120 90 105 93 98 118 99 109 140 106 80 69 66 56 33 22 44 73 67 61 47 64 78 93 118 130 131 115 118 109 120 98 76 92 115 130 122 118 128 129 171 197 147
309 200 227 249 315 216 198 267 320 312 336 103 32 22 340 10 35 49 186 175 165 185 196 194 199 180 174 165 165 170 171 166 159 161 170 167 175 183 180 173 163 157 160 158 157 157 161 164 165 162 160 159 149 121 109 116 104 94 93 81 88 77 59 68 72 55 62 77 65 54 52 74 79 77 72 73 73 71 67 67 60 61 81 89 96 96 77 71 141 167 139 132 144 147 156 139 82
315 261 213 228 214 213 295 304 20 23 345 332 103 25 308 308 345 222 300 89 194 187 183 198 189 160 145 169 174 176 162 163 163 168 172 172 172 166 168 169 166 163 163 165 160 154 146 164 166 165 156 141 138 134 139 130 131 131 125 119 117 113 107 108 125 148 124 108 123 150 63 82 87 75 64 71 71 76 71 71 70 72 74 69 75 83 79 50 33 67 105 138 140 123 135 103 103
95 273 185 192 172 141 73 12 56 41 91 293 76 131 265 325 335 297 291 176 193 225 218 199 171 174 176 172 169 170 161 154 148 147 154 159 165 165 172 179 171 163 165 156 156 155 155 163 174 169 157 150 141 143 144 130 129 133 136 139 141 143 142 177 166 146 137 159 129 98 93 58 76 85 59 69 71 70 77 80 80 75 68 64 64 72 61 52 46 43 48 60 81 107 89 92 91
237 242 186 165 102 91 134 109 116 217 256 316 33 103 179 302 291 250 231 132 179 204 225 217 203 175 174 170 172 169 166 162 161 168 171 172 173 173 178 178 173 166 151 151 161 164 162 167 174 172 151 149 150 151 145 141 138 138 131 134 144 145 150 159 157 161 155 152 112 107 78 65 67 82 83 67 70 71 80 80 84 82 79 72 72 70 76 57 58 44 55 61 56 59 92 111 109
213 287 198 282 173 162 139 99 103 29 76 289 328 347 48 273 269 307 44 344 337 216 200 185 190 187 174 173 175 180 171 164 157 160 175 180 180 181 166 174 175 155 154 163 169 171 165 165 173 160 146 153 158 156 143 144 140 142 142 142 140 149 140 147 146 141 141 121 96 52 74 73 67 62 80 83 68 73 75 85 85 88 84 80 87 81 69 71 80 77 57 57 65 57 69 111 105
274 216 238 67 15 77 98 88 63 360 65 287 278 343 215 293 281 325 333 68 322 293 124 164 179 183 176 176 175 157 141 147 165 174 180 184 180 173 176 158 167 177 165 158 164 167 168 168 173 163 155 157 159 160 146 142 139 139 142 150 146 149 136 136 136 142 135 124 124 119 114 104 98 74 61 76 78 78 83 81 84 91 102 98 86 87 77 67 60 61 62 76 75 76 54 74 89
194 66 58 1 32 10 10 72 92 63 56 256 234 276 132 296 278 260 9 319 297 232 341 126 157 160 164 169 159 158 161 166 174 182 184 178 178 171 154 173 178 165 161 163 165 174 174 175 175 170 161 156 158 161 151 149 149 149 149 152 149 151 151 146 140 138 129 124 140 148 137 144 120 113 87 68 86 87 81 83 88 88 85 85 87 86 86 86 72 74 70 63 63 82 79 79 67
133 73 102 37 341 4 28 349 37 99 276 258 260 76 106 180 299 319 244 279 300 211 136 159 153 145 150 147 136 147 167 179 166 129 120 136 152 160 150 161 167 174 169 180 177 180 183 182 176 168 158 154 156 155 151 146 147 149 143 146 149 156 158 156 153 155 162 159 162 159 159 129 127 113 104 102 88 84 84 80 85 86 91 97 96 102 97 93 86 79 64 68 66 66 71 72 69
70 78 34 98 265 29 346 13 4 208 195 256 288 8 30 223 216 258 305 315 310 297 149 146 135 123 113 121 132 143 144 119 118 132 141 162 175 166 175 180 166 176 186 188 188 188 191 185 177 163 158 149 152 149 155 154 149 151 151 151 151 158 165 158 152 153 164 163 168 159 155 152 148 126 140 122 136 111 107 93 86 93 85 89 102 96 100 96 90 79 76 63 61 60 65 79 78
105 171 134 77 74 49 233 276 218 329 300 273 322 49 193 254 300 245 340 341 3 20 89 83 106 116 116 113 116 115 115 118 118 127 133 154 169 180 182 179 185 190 193 191 192 190 87 39 41 39 26 18 139 142 152 155 158 157 157 150 151 153 161 161 157 156 166 168 171 171 167 164 165 164 161 158 174 143 114 123 112 104 107 105 105 112 107 108 106 100 90 85 80 89 77 79 94
198 152 144 177 141 158 209 191 199 207 205 276 289 63 233 83 217 272 332 23 48 37 55 84 81 87 85 85 83 84 88 94 105 97 106 119 149 175 187 192 193 193 181 184 176 65 70 80 84 85 63 7 344 158 167 167 152 139 144 142 149 155 159 163 166 160 158 162 185 177 184 175 167 178 170 181 171 153 142 132 132 120 106 95 95 87 104 108 109 104 105 112 106 92 81 77 66
283 128 78 91 212 141 169 203 143 208 216 352 16 200 181 151 229 295 83 75 52 48 64 63 66 62 71 63 61 65 83 101 106 103 89 80 101 114 168 193 187 175 177 165 81 81 84 87 111 130 142 154 232 318 241 157 130 131 142 151 161 158 159 152 154 166 166 167 177 181 188 189 186 174 182 162 186 150 146 143 138 137 131 114 93 96 104 114 116 111 107 110 106 105 91 78 65
262 66 69 226 183 115 99 44 169 98 54 258 197 330 325 302 359 33 32 66 111 113 94 91 81 69 65 57 44 37 47 55 72 87 90 70 48 37 46 74 134 146 149 108 95 106 106 118 139 129 126 147 106 55 0 307 152 137 143 156 163 156 157 164 165 183 184 178 177 190 187 198 187 177 176 176 174 154 150 149 147 149 148 138 113 105 110 120 120 116 118 106 106 92 103 110 78
76 86 236 330 83 121 120 179 352 54 140 252 360 188 309 56 241 345 45 84 27 17 127 128 122 116 102 91 68 63 42 30 36 37 51 67 64 53 49 63 85 110 120 119 117 122 131 144 136 146 157 163 135 142 176 231 164 134 143 158 170 166 165 171 169 181 190 179 187 190 190 172 197 194 180 182 172 162 160 159 150 154 154 148 153 129 123 133 124 120 140 150 146 130 106 56 41
155 191 195 90 258 240 322 92 222 107 254 255 337 184 150 160 258 352 25 99 81 75 31 105 118 119 123 126 127 120 101 73 67 66 58 63 68 68 68 72 74 86 108 117 112 117 121 131 145 152 165 168 160 168 180 170 145 130 144 163 167 173 163 165 181 190 185 187 188 190 187 192 185 190 181 174 176 171 168 168 160 162 162 166 164 144 136 134 150 137 134 145 131 128 130 127 27
6 76 35 359 99 163 115 196 177 119 239 77 277 41 180 230 234 196 137 360 118 99 89 74 77 100 113 116 120 131 122 126 109 98 94 84 73 70 70 69 64 64 74 93 127 133 136 152 165 157 131 136 155 176 163 118 116 106 97 129 165 160 155 157 188 197 191 197 195 186 194 182 188 182 185 179 178 178 178 177 179 171 175 170 173 167 163 146 150 162 157 162 178 140 136 140 169
333 31 343 35 40 216 110 9 80 157 167 165 155 27 282 271 216 159 181 135 126 120 111 98 100 111 119 123 125 114 105 92 88 94 88 76 73 64 56 58 70 68 60 65 82 111 142 150 179 158 141 141 158 170 165 163 124 114 116 133 163 149 146 166 195 226 190 204 203 192 189 191 172 187 182 182 182 184 185 185 182 182 177 180 175 173 176 155 159 165 171 175 178 163 164 177 163
197 162 215 167 119 101 118 242 350 88 95 194 105 240 262 275 167 191 182 180 139 143 132 128 123 115 116 120 119 123 105 92 90 86 86 80 71 63 57 52 51 64 69 79 80 94 108 153 199 146 121 108 78 46 10 10 63 71 78 66 86 110 172 161 164 232 226 207 224 211 192 159 186 191 184 183 188 189 191 188 182 184 183 178 185 180 183 170 173 172 180 175 180 176 177 184 163